Location: Unspecified
(35.7250°N, 0.0000°E)
Time: 12:37:34
(UTC+00:00)

Explorer 7 - Pass Details

Date: 21 June 2019
Orbit: 485 x 680 km, 50.3° (Epoch: 20 July)

Event Time Altitude Azimuth Distance (km) Brightness Sun altitude
Rises 08:32:15 0° 232° (SW) 2,702 10.0 43.4°
Reaches altitude 10° 08:34:25 10° 233° (SW) 1,843 9.2 43.8°
Maximum altitude 08:38:38 80° 320° (NW) 600 7.7 44.7°
Drops below altitude 10° 08:43:10 10° 49° (NE) 1,978 10.3 45.6°
Sets 08:45:34 0° 50° (NE) 2,919 11.0 46.1°
